Flag for Ireland Weather past 2 weeks in Waterford, Ireland

Now
55 °F

Scattered clouds.


Feels Like: 51 °F
Forecast: 48 / 63 °F
Wind: 16 mph from Northwest

Location: Cork Airport

Current Time: Jul 28, 2015 at 7:55:48 PM

Latest Report: Jul 28, 2015 at 7:00 PM


Visibility: N/A

Pressure: 29.83 "Hg

Humidity: 72%

Dew point: 46 °F

Location of WaterfordLocation

Historic Weather in Waterford — Graph

°F

Waterford temperature yesterday

Maximum temperature yesterday: 59 °F (at 12:30 PM)
Minimum temperature yesterday: 50 °F (at 11:00 PM)
Average temperature yesterday: 55 °F

Past Weeks' High & Low Weather Summary

 TemperatureHumidityPressure
High64 °F (Jul 13, 6:00 PM)100% (Jul 14, 3:30 AM)30.15 "Hg (Jul 14, 3:30 AM)
Low46 °F (Jul 19, 4:30 AM)55% (Jul 28, 3:30 PM)29.36 "Hg (Jul 26, 9:30 AM)
Average56 °F87%29.86 "Hg
* Reported Jul 13 6:00 PM — Jul 28 6:30 PM, Waterford, Weather by CustomWeather, © 2015

Note: Actual official high and low records may vary slightly from our data, if they occured in-between our weather recording intervals... More about our weather records

Advertising

Waterford weather history for previous 24 hours

 ConditionsComfort  
Time TempWeatherWind HumidityBarometerVisibility
6:30 PM
Tue, Jul 28
55 °FScattered clouds.18 mph72%29.83 "HgN/A
6:00 PM57 °FScattered clouds.17 mph67%29.83 "HgN/A
5:30 PM59 °FPassing clouds.20 mph59%29.83 "HgN/A
5:00 PM59 °FScattered clouds.18 mph63%29.83 "HgN/A
4:30 PM61 °FScattered clouds.21 mph59%29.83 "HgN/A
4:00 PM59 °FScattered clouds.20 mph63%29.83 "HgN/A
3:30 PM61 °FScattered clouds.18 mph55%29.83 "HgN/A
3:00 PM61 °FSprinkles. Scattered clouds.21 mph63%29.83 "HgN/A
2:30 PM59 °FScattered clouds.21 mph63%29.83 "HgN/A
2:00 PM57 °FScattered clouds.18 mph67%29.83 "HgN/A
1:30 PM59 °FScattered clouds.15 mph68%29.83 "HgN/A
1:00 PM55 °FScattered clouds.14 mph77%29.83 "HgN/A
12:30 PM57 °FBroken clouds.10 mph72%29.83 "HgN/A
12:00 PM54 °FBroken clouds.12 mph82%29.83 "HgN/A
11:30 AM57 °FBroken clouds.16 mph67%29.80 "HgN/A
11:00 AM57 °FPartly sunny.12 mph72%29.80 "HgN/A
10:30 AM55 °FBroken clouds.17 mph67%29.83 "HgN/A
10:00 AM57 °FBroken clouds.15 mph72%29.83 "HgN/A
9:30 AM55 °FScattered clouds.14 mph77%29.80 "HgN/A
9:00 AM55 °FScattered clouds.15 mph77%29.80 "HgN/A
8:30 AM54 °FPassing clouds.12 mph82%29.80 "HgN/A
8:00 AM52 °FPassing clouds.12 mph88%29.80 "HgN/A
7:30 AM50 °FPassing clouds.12 mph88%29.80 "HgN/A
7:00 AM48 °FPassing clouds.9 mph94%29.80 "HgN/A
6:30 AM48 °FPassing clouds.7 mph87%29.80 "HgN/A
6:00 AM48 °FPassing clouds.5 mph87%29.80 "HgN/A
5:30 AM48 °FPassing clouds.5 mph94%29.80 "HgN/A
5:00 AM50 °FPassing clouds.7 mph88%29.80 "HgN/A
4:30 AM50 °FPassing clouds.10 mph88%29.77 "HgN/A
4:00 AM50 °FPassing clouds.12 mph88%29.77 "HgN/A
3:30 AM50 °FPassing clouds.12 mph88%29.80 "HgN/A
3:00 AM50 °FPassing clouds.12 mph88%29.80 "HgN/A
2:30 AM50 °FPassing clouds.14 mph88%29.77 "HgN/A
2:00 AM52 °FPassing clouds.15 mph82%29.77 "HgN/A
1:30 AM52 °FPassing clouds.13 mph82%29.80 "HgN/A
1:00 AM52 °FPassing clouds.13 mph88%29.80 "HgN/A
12:30 AM50 °FPassing clouds.12 mph88%29.80 "HgN/A
12:00 AM52 °FPassing clouds.8 mph88%29.80 "HgN/A
11:30 PM
Mon, Jul 27
50 °FPassing clouds.7 mph88%29.80 "HgN/A
11:00 PM50 °FPassing clouds.9 mph88%29.77 "HgN/A
10:30 PM52 °FPassing clouds.16 mph82%29.77 "HgN/A
10:00 PM52 °FScattered clouds.20 mph82%29.77 "HgN/A
9:30 PM54 °FPartly sunny.17 mph82%29.77 "HgN/A
9:00 PM54 °FPartly sunny.18 mph82%29.74 "HgN/A
8:30 PM54 °FPartly sunny.22 mph82%29.74 "HgN/A
8:00 PM55 °FBroken clouds.21 mph77%29.74 "HgN/A
7:30 PM55 °FPartly sunny.21 mph77%29.74 "HgN/A
7:00 PM55 °FPartly sunny.23 mph77%29.71 "HgN/A
Weather by CustomWeather, © 2015

See weather overviewHow to use our weather pages